Regional Weather Roundup
Issued by NWS

Home | Current Version | Previous Version | Text Only | Print | Product List | Glossary Off
Versions: 1 2 3 4 5 6 7 8 9 10 11 12 13 14 15 16 17 18 19 20 21 22 23 24 25 26 27 28 29 30 31 32 33 34 35 36 37 38 39 40 41 42 43 44 45 46 47 48 49 50

000
ASUS45 KTFX 312119
RWRMT
MONTANA HOURLY WEATHER ROUNDUP
NATIONAL WEATHER SERVICE GREAT FALLS MT
319 PM MDT THU JUL 31 2014

NOTE: "FAIR" INDICATES FEW OR NO CLOUDS BELOW 12000 FEET WITH NO
SIGNIFICANT WEATHER AND/OR OBSTRUCTIONS TO VISIBILITY.

* THESE STATIONS ARE NOT UNDER NWS QUALITY CONTROL. THEY DO NOT
   REPORT WEATHER SUCH AS PRECIPITATION OR FOG.

MTZ001>007-043-312200-
WEST OF THE DIVIDE
CITY           SKY/WX    TMP DP  RH WIND       PRES   REMARKS
KALISPELL      SUNNY     90  48  24 SE3       30.08F
MISSOULA       PTCLDY    93  39  15 VRB5      30.09F
BUTTE          CLOUDY    81  37  21 SW5       30.26S
MULLAN PASS    SUNNY     79  36  21 VRB5      30.31F
* ESSEX        N/A       90  42  19 W1G9       N/A
* LINCOLN      N/A       88  41  19 S6G12      N/A
* LOOKOUT PASS N/A       84  35  17 N/A        N/A
* POLSON       N/A       93  50  23 SE3        N/A
* RONAN APT    SUNNY     90  48  24 N/A        N/A
* SEELEY LAKE  N/A       89  38  17 SW7G13     N/A
* THOMP F APT  SUNNY     64  55  73 N9G17      N/A
$$

MTZ008-052>055-312200-
SOUTHWEST MONTANA
CITY           SKY/WX    TMP DP  RH WIND       PRES   REMARKS
BOZEMAN        SUNNY     88  34  15 N/A       30.18F
DILLON         PTCLDY    81  48  32 NW6       30.22F
W YELLOWSTONE  PTSUNNY   75  36  24 N15G22    30.32S
* THREE FORKS  SUNNY     88  48  25 N6         N/A
* BOULDER HILL N/A       83  43  24 SE2G7      N/A
* RAYNOLDS PAS N/A       75  67  76 N/A        N/A
* WHITEHALL    N/A       85  39  20 N8G15      N/A
* WISE RIVER   N/A       77  48  36 NE8G20     N/A
$$

MTZ009>010-012-014-046-048-049-054-312200-
EAST SLOPES AND CENTRAL MONTANA
CITY           SKY/WX    TMP DP  RH WIND       PRES   REMARKS
CUT BANK       TSTM      86  48  27 N10       30.13S
GREAT FALLS    SUNNY     91  36  14 NE8G17    30.09F
HELENA         PTSUNNY   91  36  14 NE6       30.13F
MALMSTROM AFB  PTCLDY    91  36  14 N9G17     30.09F
* CONRAD       PTCLDY    90  50  25 N/A        N/A
* EAST GLACIER N/A       74  50  43 NE13G23    N/A
* MONARCH      N/A       84  40  21 W6G18      N/A
* PENDROY      N/A       80  43  27 NW28G37    N/A
* ROGERS PASS  N/A       79  33  19 N2         N/A
* SAINT MARY   N/A       71  57  61 NE3G11     N/A
* SWEET GRASS  N/A       86  47  26 NE10G17    N/A
* WHITE SULPH  N/A       82  44  26 NW10G16    N/A
$$

MTZ011-013-016-021-035-040-045-047-050-051-312200-
NORTH CENTRAL MONTANA
CITY           SKY/WX    TMP DP  RH WIND       PRES   REMARKS
HAVRE          SUNNY     97  39  13 N10       30.01F
LEWISTOWN      PTCLDY    88  41  19 NW5       30.14S
* FORT BENTON  SUNNY     95  37  13 CALM      30.04F
* CHESTER      N/A       89  45  22 NE10G19    N/A
* DENTON       N/A       92  49  23 N10        N/A
* GEYSER       N/A       90  46  22 NE1G11     N/A
* JUDITH GAP   N/A       83  48  30 SW7G15     N/A
* LOMA         N/A       95  38  14 NW1G13     N/A
$$

MTZ017>020-022>027-061-062-312200-
NORTHEAST MONTANA
CITY           SKY/WX    TMP DP  RH WIND       PRES   REMARKS
GLASGOW        SUNNY     99  37  12 W7        29.97F
GLENDIVE       PTCLDY    93  43  18 SW13G29   30.04F
JORDAN         SUNNY     99  32   9 NW8       30.00F
SIDNEY         SUNNY     93  52  25 E8        30.02F
WOLF POINT     SUNNY     97  41  14 SW5       29.98F
* BEAVER HILL  N/A       92  45  20 SW15       N/A
* CIRCLE       N/A       95  45  18 SW4G11     N/A
* LINDSAY DVD  N/A       90  45  21 S12G24     N/A
* NAVAJO       N/A       88  53  30 S8         N/A
$$

MTZ028>042-056>058-312200-
SOUTHCENTRAL AND SOUTHEAST MONTANA
CITY           SKY/WX    TMP DP  RH WIND       PRES   REMARKS
BAKER          PTCLDY    88  43  21 W7        30.10F
BILLINGS       PTCLDY    90  39  17 SE5       30.10F
LIVINGSTON     PTCLDY    90  34  14 N6        30.16F
MILES CITY     PTCLDY    93  34  12 SW7G16    30.04F
* LAUREL APT   SUNNY     91  43  19 E8         N/A
* ROUNDUP APT  SUNNY     91  37  15 N/A        N/A
* ALZADA       N/A       85  42  22 NE1        N/A
* HYSHAM       N/A       90  47  23 SE4        N/A
* LAME DEER    N/A       86  33  15 W6G13      N/A
* REED POINT   N/A       92  47  21 W12        N/A
* ROSCOE HILL  N/A       82  40  22 S14G23     N/A
$$

REGIONAL REPORTS...DAKOTAS
CITY           SKY/WX    TMP DP  RH WIND       PRES   REMARKS
WILLISTON      SUNNY     88  52  29 VRB6      30.04F
DICKINSON      SUNNY     86  48  27 VRB3      30.07F
CROSBY         SUNNY     82  59  46 SE6       30.06F HI  82
TIOGA          SUNNY     81  59  47 S9        30.11S HI  81
WATFORD CITY   SUNNY     86  54  33 NE5       30.03F
BISMARCK       SUNNY     86  48  27 SW7       30.07F
GRAND FORKS    PTCLDY    82  61  49 W5        30.00F HI  83
FARGO          PTCLDY    84  57  40 NW9       30.01S HI  83
BUFFALO SD     PTCLDY    90  45  21 W8        30.05F
RAPID CITY     SUNNY     84  52  33 CALM      30.13F
$$

REGIONAL REPORTS...WYOMING/IDAHO/WASHINGTON
CITY           SKY/WX    TMP DP  RH WIND       PRES   REMARKS
GILLETTE       SUNNY     84  37  19 S6        30.17F
SHERIDAN       PTCLDY    90  37  15 W5        30.13F
CODY           PTCLDY    82  39  22 N13       30.20F
YELLOWSTONE LA PTSUNNY   64  39  40 VRB3      30.45R
SALMON         PTCLDY    88  43  21 SW3       30.08F
MULLAN PASS    SUNNY     79  36  21 VRB5      30.31S
SAND POINT     SUNNY     90  54  29 E8        30.03F
SPOKANE        SUNNY     97  32  10 W6        30.04F
$$

REGIONAL REPORTS...ALBERTA
CITY           SKY/WX    TMP DP  RH WIND       PRES   REMARKS
CALGARY        PTSUNNY   79  61  54 E9        30.13F
LETHBRIDGE     PTSUNNY   82  57  43 N7        30.11F HI  82
MEDICINE HAT   PTCLDY    91  52  26 N8G20     30.04S
EDMONTON       PTCLDY    79  59  50 N10G17    30.12S
WATERTON GATE  N/A       82  54  38 E3         N/A
CARDSTON       N/A       79  59  50 N5         N/A
MILK RIVER     N/A       84  48  29 N10        N/A
$$

REGIONAL REPORTS...SASKATCHEWAN
CITY           SKY/WX    TMP DP  RH WIND       PRES   REMARKS
SWIFT CURRENT  SUNNY     90  50  25 W5        30.01S
MOOSE JAW      SUNNY     84  59  43 SE8       30.03F HI  84
REGINA         SUNNY     82  61  49 SE8       30.05S HI  83
VAL MARIE      N/A       88  50  27 N6         N/A
ASSINIBOIA     N/A       86  50  29 E2         N/A
CORONACH       N/A       91  46  21 SW2        N/A

$$




USA.gov is the U.S. government's official web portal to all federal, state and local government web resources and services.